Challenge ACRHO

La Gallo-Romaine Virtuelle - Blicquy (12.13 km)

Du 20 mars au 28 mars 2021

Vous pouvez trouver le classement original sur : http://www.acrho.org/
CHALLENGE ACRHO
LA GALLO-ROMAINE - BLICQUY (MODE VIRTUEL)
Distance : 12.13 km
Du 20 mars au 28 mars 2021
 
place Nom Equipe Catég. Pl/Cat. temps temps/km Vitesse
1 DYLAN DAUMERIE - Homme 1 00:41:51 03:27 17.39
2 VALERIAN DUPONT - Homme 2 00:42:31 03:30 17.11
3 BENOIT MESTAG ADDM RUNNERS Homme 3 00:45:05 03:43 16.14
4 BENJAMIN VANWYNENDAELE - Homme 4 00:46:05 03:48 15.79
5 BAPTISTE KESTELYN - Homme 5 00:46:17 03:49 15.72
6 BENOIT SARRAZIN - Homme 6 00:46:41 03:51 15.59
7 JÉROME GOBERT COACH RUNNING Homme 7 0:46:44 03:51 15.57
8 ALAIN DE SAINT-MARTIN - Homme 8 00:46:44 03:51 15.57
9 FRÉDÉRIC BARBEE ADDM RUNNERS/FARMERS Homme 9 00:47:06 03:53 15.45
10 GILLES WISEUR - Homme 10 0:47:26 03:55 15.34
11 CHRISTOPHE WATTIEZ ACBB Homme 11 00:48:06 03:58 15.13
12 GEOFFREY DELRIVIÈRE POTES Ô MALTÉS Homme 12 0:48:19 03:59 15.06
13 PABLO PINON ATHOIS D'COURIR / RST ATH Homme 13 00:48:41 04:01 14.95
14 CÉDRIC BOONAERT RST ATH Homme 14 00:49:03 04:03 14.83
15 VIRGINIE DUJARDIN GSCOACHING Dame 1 00:49:30 04:05 14.70
16 MICHEL VAN NESTE LES NOIX DE COCO Homme 15 00:49:30 04:05 14.70
17 JULIEN BOULANGER - Homme 16 00:49:34 04:05 14.68
18 MAXIME BACHELARD - Homme 17 00:49:36 04:05 14.67
19 XAVIER FLAMENG LES GAILARDS Homme 18 00:50:32 04:10 14.40
20 NICOLAS MICHEL ACBB Homme 19 00:50:40 04:11 14.36
21 MICHAËL VAN WYMEERSCH ADDM RUNNERS Homme 20 00:50:42 04:11 14.35
22 GRÉGORY LEBAILLY ADDM RUNNERS Homme 21 0:50:56 04:12 14.29
23 FRÉDÉRIC POELAERT - Homme 22 0:51:09 04:13 14.23
24 OLIVIER VINCHENT RST ATH Homme 23 00:51:33 04:15 14.12
25 BRYAN BOLLUE VELAINES Homme 24 00:52:19 04:19 13.91
26 OLIVIER PARENT - Homme 25 0:52:38 04:20 13.82
27 BENJAMIN CAILLEAU - Homme 26 00:52:52 04:22 13.76
28 JÉRÔME BONNIER TORTUES MESLINOISES Homme 27 00:53:05 04:23 13.71
29 SYLVAIN FICHERE - Homme 28 0:53:06 04:23 13.70
30 FABRICE FROISSART RCE/FARMERS Homme 29 0:53:07 04:23 13.70
31 LAURENT DELHAYE - Homme 30 0:53:23 04:24 13.63
32 QUENTIN VUILLEMIN - Homme 31 00:53:52 04:27 13.51
33 MAXIME BROTCORNE - Homme 32 00:53:57 04:27 13.49
34 THEO DUTRANOIT - Homme 33 00:53:57 04:27 13.49
35 JUSTIN DEMARET - Homme 34 00:53:57 04:27 13.49
36 NICOLAS THIERCELIN - Homme 35 0:54:02 04:27 13.47
37 JULIE VANDAELE - Dame 2 00:54:06 04:28 13.45
38 EMERIC STEVENS - Homme 36 00:54:12 04:28 13.43
39 FRÉDÉRIC LEIEUX TORTUES MESLINOISES Homme 37 0:54:28 04:29 13.36
40 JULIEN ALTRUY TORTUES MESLINOISES Homme 38 00:54:28 04:29 13.36
41 JULIEN JADOT - Homme 39 00:54:28 04:29 13.36
42 STÉPHANE DERMAUT - Homme 40 00:54:30 04:30 13.35
43 STÉPHANE DERMAUT - Homme 41 00:54:30 04:30 13.35
44 MATHIEU BONNIER - Homme 42 00:54:47 04:31 13.28
45 DAVID DERREUMAUX - Homme 43 0:54:48 04:31 13.28
46 STÉPHANE MORLEGHEM RUNNING SAFE Homme 44 00:54:49 04:31 13.27
47 GUILLAUME MANTEAU RST ATH Homme 45 0:54:49 04:31 13.27
48 STEPHAN STEVENS - Homme 46 0:54:50 04:31 13.27
49 LAURENT VANDERSTRAETEN TORTUES MESLINOISES Homme 47 00:54:50 04:31 13.27
50 JULIEN NOTTEBAERT - Homme 48 00:54:56 04:32 13.25
51 THIBAUT CUVELIER - Homme 49 0:55:09 04:33 13.19
52 THOMAS MORIAU RALL Homme 50 00:55:15 04:33 13.17
53 PHILIPPE WANEUKEM ATH ATLÉTISME Homme 51 00:55:18 04:34 13.16
54 MAXIME DESTREBECQ LES CEUSSES DES COLLINES Homme 52 00:55:35 04:35 13.09
55 FRÉDÉRIC MAHIEU - Homme 53 00:55:39 04:35 13.08
56 MICHAËL DUPONT - Homme 54 0:55:45 04:36 13.05
57 BRYAN BOLLUE - Homme 55 00:55:48 04:36 13.04
58 CEDRIC BRAIION - Homme 56 00:55:49 04:36 13.04
59 LOUIS BRAIION - Homme 57 00:55:53 04:36 13.02
60 DOMINIQUE VANOVERSKELDS ATH ATLÉTISME Homme 58 0:55:53 04:36 13.02
61 ANTHIME ALLAERT COACH RUNNING Homme 59 00:55:57 04:37 13.01
62 JORDAN ABRAHAM TORTUES MESLINOISES Homme 60 00:56:00 04:37 12.99
63 CHRISTOPHE WILLOCQ POTES Ô MALTÉS Homme 61 00:56:05 04:37 12.97
64 JONATHAN VIVIER - Homme 62 00:56:08 04:38 12.96
65 GILLES PIRON - Homme 63 00:56:08 04:38 12.96
66 NICOLAS DECOCK - Homme 64 00:56:36 04:40 12.86
67 SEBASTIEN F - Homme 65 0:56:36 04:40 12.86
68 NICOLAS DECOCK - Homme 66 00:56:36 04:40 12.86
69 SÉBASTIEN FOUQUETTE ADDM RUNNERS Homme 67 0:56:36 04:40 12.86
70 AUXANNE DUJARDIN ADDM RUNNERS Dame 3 0:56:51 04:41 12.80
71 SÉBASTIEN THIELEMANS LES NOIX DE COCO Homme 68 00:56:55 04:42 12.78
72 STEVE ABRAHAM POTES Ô MALTÉS Homme 69 00:56:55 04:42 12.78
73 SEBASTIEN BOGEMANS POTES Ô MALTÉS Homme 70 00:56:59 04:42 12.77
74 MAXIME GOUGEON JC HÉRINNES Homme 71 00:57:12 04:43 12.72
75 CÉCILE MOUTIEZ - Dame 4 00:57:13 04:43 12.72
76 GILLES DE LANGHE ATHOIS D'COURIR Homme 72 00:57:15 04:43 12.71
77 ALEXANDRINE DE SMET - Dame 5 00:57:21 04:44 12.69
78 DAVID HERTSENS TORTUES MESLINOISES Homme 73 0:57:22 04:44 12.68
79 JEAN-LOUIS GILLET - Homme 74 00:57:39 04:45 12.62
80 ROMAIN LUX POTES Ô MALTÉS Homme 75 00:57:42 04:45 12.61
81 CATHERINE DUJARDIN - Dame 6 00:57:51 04:46 12.58
82 SÉBASTIEN VANTORRE LES NOIX DE COCO Homme 76 0:57:54 04:46 12.57
83 YOURI VANGLABEKE - Homme 77 00:57:57 04:47 12.56
84 AXEL TOURNEUR KAIN B Homme 78 00:58:00 04:47 12.55
85 GWEN VAN RENTERGHEM ATHOIS D'COURIR Homme 79 00:58:16 04:48 12.49
86 JOHAN DEGRANSART POTES Ô MALTÉS Homme 80 00:58:28 04:49 12.45
87 JEREMY ZENNER ENDURANCE TEAM CHIÈVRES Homme 81 00:58:30 04:49 12.44
88 JEREMY ZENNER - Homme 82 00:58:30 04:49 12.44
89 FRED DE ROUCK - Homme 83 00:58:33 04:50 12.43
90 JEAN-LOUIS PETIT POTES Ô MALTÉS Homme 84 00:58:34 04:50 12.42
91 MAXIME DEMAN - Homme 85 00:58:35 04:50 12.42
92 DIMITRI DUFOUR - Homme 86 00:58:35 04:50 12.42
93 ERIC ZENNER - Homme 87 0:58:40 04:50 12.40
94 DAVID JUCHTMANS - Homme 88 0:58:42 04:50 12.40
95 MAXIME BACHELARD LES GAILARDS Homme 89 00:58:42 04:50 12.40
96 JÉRÔME SAUSSEZ LES GAILARDS Homme 90 00:58:43 04:50 12.39
97 GRÉGORY DEGRANSART - Homme 91 0:58:49 04:51 12.37
98 C PTISEB - Homme 92 0:58:56 04:52 12.35
99 MAXIME CABO - Homme 93 00:59:07 04:52 12.31
100 DOROTHÉE DE RODDER HAVIGNOBLE Dame 7 00:59:11 04:53 12.29
101 MATTHIEU TOUSSAINT - Homme 94 00:59:23 04:54 12.25
102 KIM DECLERCQ POTES Ô MALTÉS Homme 95 00:59:25 04:54 12.25
103 J-LOUIS LOOPS - Homme 96 00:59:34 04:55 12.22
104 JEAN-LOUIS COPPIN - Homme 97 00:59:34 04:55 12.22
105 FRÉDÉRIC POELAERT ADDM RUNNERS Homme 98 01:00:02 04:57 12.12
106 PIERRE NEIRYNCK RST ATH Homme 99 1:00:03 04:57 12.12
107 IVAN DELCROIX - Homme 100 01:00:03 04:57 12.12
108 BAPTISTE GUIDEZ - Homme 101 01:00:04 04:57 12.11
109 ALEXANDRE NTAHONDEREYE TORTUES MESLINOISES Homme 102 01:00:06 04:57 12.11
110 THOMAS VAN SCHOORISSE ADDM RUNNERS Homme 103 1:00:08 04:58 12.10
111 GRÉGORY DEWULF ADDM RUNNERS Homme 104 01:00:13 04:58 12.08
112 BERT FEYS COACH RUNNING Homme 105 01:00:14 04:58 12.08
113 GUILLAUME ANSCIAUX - Homme 106 01:00:34 05:00 12.01
114 KATTY BERNARD - Dame 8 01:00:51 05:01 11.96
115 LAURA DUMORTIER RST ATH Dame 9 01:00:55 05:01 11.94
116 NISSIM OLBRECHTS ADDM RUNNERS Homme 107 01:01:08 05:02 11.90
117 HUGO ROOSE - Homme 108 1:01:13 05:03 11.89
118 JEAN-FRANÇOIS GASSET BAC Homme 109 1:01:14 05:03 11.88
119 DAVID AMORISON - Homme 110 01:01:18 05:03 11.87
120 JEAN-PHILIPPE VAN RENTERGHEM KERVASSIN Homme 111 01:01:29 05:04 11.83
121 CHRISTOFER LEROY POTES Ô MALTÉS Homme 112 1:01:34 05:05 11.82
122 LAURENT ROOSE LA PORTE OUVERTE Homme 113 01:01:35 05:05 11.82
123 ERIC VANUS BAC Homme 114 01:01:54 05:06 11.76
124 JEAN-CHARLES CHRISTIAENS RUN FOR FUN Homme 115 01:01:58 05:07 11.74
125 LAURE PARENT - Dame 10 01:01:59 05:07 11.74
126 MAURIZIO PETINI - Homme 116 01:02:20 05:08 11.67
127 THOMAS DI PROSPERO - Homme 117 01:02:24 05:09 11.66
128 DORIAN MORLEGHEM OBJ Homme 118 01:02:24 05:09 11.66
129 ANTONY DORANGE - Homme 119 01:02:24 05:09 11.66
130 POL RIVIÈRE - Homme 120 01:02:24 05:09 11.66
131 BENOIT BLONDEEL - Homme 121 01:02:36 05:10 11.62
132 MOUNIA ALTRUY - Dame 11 1:02:42 05:10 11.61
133 JULIEN NOTTEBAERT - Homme 122 01:02:57 05:11 11.56
134 JULIEN NOTTEBAERT - Homme 123 01:02:57 05:11 11.56
135 HUBERT DELRIVIÈRE - Homme 124 01:03:00 05:12 11.55
136 JONATHAN FALEMPIN - Homme 125 01:03:00 05:12 11.55
137 JONAS KEVERS - Homme 126 01:03:00 05:12 11.55
138 FLORIAN WALLEZ - Homme 127 1:03:00 05:12 11.55
139 BENJAMIN VANWYNENDAELE - Homme 128 01:03:00 05:12 11.55
140 CHRISTIAN MASAI - Homme 129 01:03:00 05:12 11.55
141 REMY DELBECQ KAIN B Homme 130 01:03:01 05:12 11.55
142 NICOLAS CARTON - Homme 131 01:03:04 05:12 11.54
143 MATHIEU BREUSE JC HÉRINNES Homme 132 01:03:08 05:12 11.53
144 MARIE-HÉLÈNE SPILEERS - Dame 12 01:03:10 05:13 11.52
145 STEPHANE VAN DE SANDE - Homme 133 01:03:25 05:14 11.47
146 LOUIS LECLERCQ - Homme 134 01:03:27 05:14 11.47
147 SEBASTIEN DEGAND - Homme 135 01:03:32 05:14 11.45
148 DAVID MAHIEU - Homme 136 01:03:36 05:15 11.44
149 JULIE WILSSENS - Dame 13 1:03:37 05:15 11.44
150 PIERRE JUCHTMANS - Homme 137 1:03:40 05:15 11.43
151 JEAN-MICHEL VERHELST - Homme 138 01:03:40 05:15 11.43
152 VIRGINIE THUIN - Dame 14 1:03:43 05:15 11.42
153 YANN BORET - Homme 139 1:03:45 05:15 11.41
154 SYLVAIN COPPIETERS - Homme 140 01:03:47 05:16 11.41
155 CHRISTOPHE FRANÇOIS - Homme 141 01:03:47 05:16 11.41
156 GEORGES CLEMENT - Homme 142 01:03:52 05:16 11.39
157 EDDY MAHIEU - Homme 143 01:03:54 05:16 11.39
158 JOHATHAN DEWINTER - Homme 144 1:04:01 05:17 11.37
159 THIERRY CASTERMAN - Homme 145 01:04:05 05:17 11.35
160 CORENTIN COUDOU - Homme 146 01:04:05 05:17 11.35
161 HUGO SAVARY RALL Homme 147 01:04:09 05:17 11.34
162 DAMIEN FIASSE - Homme 148 1:04:10 05:17 11.34
163 MURIELLE DEGUELDRE RST ATH Dame 15 1:04:10 05:17 11.34
164 MIKE HEMEL - Homme 149 01:04:11 05:18 11.34
165 DAVID DE BRUYN RALL Homme 150 01:04:16 05:18 11.32
166 MÉLANIE VANDENBULCKE - Dame 16 01:04:18 05:18 11.32
167 ROMAIN DELABY - Homme 151 01:04:21 05:18 11.31
168 MARIE BEHEYT - Dame 17 01:04:22 05:18 11.30
169 LAURENT QUINTILI - Homme 152 01:04:27 05:19 11.29
170 YVES SADOINE - Homme 153 1:04:46 05:20 11.23
171 JULIE AUDIN - Dame 18 1:04:46 05:20 11.23
172 THIBAUT NUYTTEN - Homme 154 01:04:58 05:21 11.20
173 BICHA EL-HASSANE - Homme 155 1:05:07 05:22 11.17
174 PIERRE GLORIEUX - Homme 156 01:05:07 05:22 11.17
175 OLIVIER PICRON - Homme 157 01:05:14 05:23 11.15
176 LIVIE BALBO - Homme 158 01:05:24 05:24 11.13
177 GEOFFREY MINET - Homme 159 01:05:31 05:24 11.11
178 ISABELLE DECUBBER - Dame 19 1:05:35 05:24 11.09
179 DAMIEN VAN DRIESSCHE - Homme 160 01:05:47 05:25 11.06
180 DAMIEN VAN DRIESSCHE VELAINES Homme 161 01:05:47 05:25 11.06
181 SYLVIE HEMPTE VELAINES Dame 20 01:05:47 05:25 11.06
182 ARIANE VINCHANT VELAINES Dame 21 01:05:51 05:26 11.05
183 GAUTHIER ROZEL SUK C'EST FOU 1 Homme 162 01:05:51 05:26 11.05
184 BENOÎT DECLÈVE SUK C'EST FOU ! Homme 163 01:06:02 05:27 11.02
185 MIREILLE BONNEFOIS POTES Ô MALTÉS Dame 22 01:06:45 05:30 10.90
186 ANNE VANDEMEULEBROUCKE ATHOIS D'COURIR Dame 23 1:06:50 05:31 10.89
187 LAURANNE VAN DEYNZE - Dame 24 01:07:13 05:33 10.83
188 CAMILLE ASSOIGNONS - Dame 25 01:07:16 05:33 10.82
189 JULIE BAZARDAGE - Dame 26 1:07:17 05:33 10.81
190 SÉBASTIEN THÎELEMANS - Homme 164 01:07:23 05:33 10.80
191 OLIVIER ABANDON POTES Ô MALTÉS Homme 165 01:07:24 05:33 10.80
192 EDOUARD JANDREZ ATHOIS D'COURIR Homme 166 1:07:27 05:34 10.79
193 CLAUDE MOREAU - Homme 167 01:07:29 05:34 10.78
194 AURÉLIE SALOMÉ - Dame 27 1:07:41 05:35 10.75
195 VALÉRIE SAUVAGE - Dame 28 1:07:52 05:36 10.72
196 JEAN-LUC WILLOCQ RST ATH Homme 168 01:07:52 05:36 10.72
197 CHRISTOPHE STACQUET RST ATH Homme 169 01:07:52 05:36 10.72
198 QUENTIN ESLA ATHOIS D'COURIR Homme 170 01:08:03 05:37 10.69
199 JULIE HELLIN ADDM RUNNERS Dame 29 01:08:11 05:37 10.67
200 DAVID HEYSECOM POTES Ô MALTÉS Homme 171 01:08:22 05:38 10.64
201 CAROLINE LEIEU RST ATH Dame 30 01:08:25 05:38 10.64
202 AILEMA ACH - Dame 31 01:08:25 05:38 10.64
203 TANIA PLATTEEUW - Dame 32 01:08:27 05:39 10.63
204 AURÉLIEN DUPONT - Homme 172 01:08:31 05:39 10.62
205 NATHAN PUOZZO - Homme 173 01:08:32 05:39 10.62
206 EDDY PLUQUET - Homme 174 1:08:36 05:39 10.61
207 MÉLANIE DEBAYE - Dame 33 01:08:42 05:40 10.59
208 DAVID VIAENE - Homme 175 1:09:00 05:41 10.55
209 DOMINIQUE GRIVET POTES Ô MALTÉS Homme 176 01:09:00 05:41 10.55
210 CHRISTOPHE LELEUX C.T. ANTOING Homme 177 01:09:11 05:42 10.52
211 MARIE ALLARD - Dame 34 01:09:16 05:43 10.50
212 NATH MYTS - Dame 35 01:09:18 05:43 10.50
213 MARION DE CLERCQ - Dame 36 01:09:19 05:43 10.50
214 ANNE-LISE DERIDDER FARMERS Dame 37 01:09:26 05:44 10.48
215 ALINE COWÉ - Dame 38 01:09:40 05:45 10.44
216 ERIC DESLÉE - Homme 178 1:09:43 05:45 10.44
217 SWAN - Dame 39 01:09:46 05:45 10.43
218 DAVID SPILEERS - Homme 179 01:09:50 05:45 10.42
219 ERIC DESLEE - Homme 180 01:09:51 05:46 10.42
220 MICHAËL BASTEN KAIN B Homme 181 01:10:01 05:46 10.39
221 JOEL LIBBRECHT ATHOIS D'COURIR Homme 182 01:10:14 05:47 10.36
222 VINCENT STRADIOT - Homme 183 01:10:15 05:48 10.36
223 JEAN-MARC THIRAN - Homme 184 01:10:15 05:48 10.36
224 AUDREY NOULLET - Dame 40 01:10:16 05:48 10.36
225 OLIVIER BRICMAAN - Homme 185 01:10:20 05:48 10.35
226 OLIVIER BRICMAAN RST ATH Homme 186 01:10:20 05:48 10.35
227 SÉVERINE DESMYTER RST ATH Dame 41 1:10:20 05:48 10.35
228 LAURENT FLAMENG RST ATH Homme 187 01:10:22 05:48 10.34
229 AUDREY JONNAERT RST ATH Dame 42 1:10:24 05:48 10.34
230 LAURIE CAPENOL - Dame 43 01:10:25 05:48 10.33
231 CYRIL NATH - Homme 188 01:10:43 05:50 10.29
232 JUSTINE DESMET - Dame 44 01:10:44 05:50 10.29
233 SANDRA AMORISON - Dame 45 01:10:47 05:50 10.28
234 KEVIN CAPENOL - Homme 189 1:10:52 05:51 10.27
235 FATIMA DAIDOU - Dame 46 01:10:55 05:51 10.26
236 CATHERINE DESMONT TORTUES MESLINOISES Dame 47 01:10:56 05:51 10.26
237 SÉBASTIEN HAUBRUGE ATHOIS D'COURIR Homme 190 01:10:56 05:51 10.26
238 KARL KRAWIEC - Homme 191 01:10:59 05:51 10.25
239 LAURENT CARTON - Homme 192 1:11:10 05:52 10.22
240 CHRISTIAN DIERICK CNDK Homme 193 1:11:26 05:53 10.19
241 AURORE MERLIN - Dame 48 01:11:33 05:54 10.17
242 PASCALE GOSSART - Dame 49 01:11:35 05:54 10.16
243 GREGORY SAVOIE - Homme 194 01:11:42 05:55 10.15
244 MONIQUE VRANCKX - Dame 50 1:11:58 05:56 10.11
245 ANTOINE VAN WYNSBERGHE TORTUES MESLINOISES Homme 195 01:12:07 05:57 10.09
246 DOMINIQUE BROUILLARD - Homme 196 01:12:22 05:58 10.05
247 PHILIPPE BAUSIER - Homme 197 01:12:31 05:59 10.03
248 CATHERINE GRAINDORGE - Dame 51 01:12:33 05:59 10.03
249 CHRISTIAN JURQUIN - Homme 198 1:12:43 06:00 10.01
250 SOPHIE GARSON - Dame 52 01:12:54 06:01 9.98
251 JAY CHPN - Homme 199 01:13:09 06:02 9.95
252 ELISE ANRYS - Dame 53 1:13:11 06:02 9.94
253 CLAIRE DUCHATEL - Dame 54 01:13:11 06:02 9.94
254 JESSICA COVENT - Dame 55 1:13:13 06:02 9.94
255 MYRIAM CARREZ - Dame 56 01:13:34 06:04 9.89
256 ALEXANDRA CHRISTIAENS LES CEUSSES DES COLLINES Dame 57 01:13:36 06:04 9.89
257 MAGALI VAN WYMEERSCH JCPMF ATH Dame 58 01:13:43 06:05 9.87
258 INÈS DE MEESTER - Dame 59 01:14:02 06:06 9.83
259 THOMAS DEPLECHIN - Homme 200 01:14:02 06:06 9.83
260 CATHERINE MIROIR - Dame 60 01:14:06 06:07 9.82
261 BENOÎT WEYTSMAN - Homme 201 01:14:33 06:09 9.76
262 ELISE VAN RECHEM - Dame 61 01:15:30 06:14 9.64
263 PAUL-VALÉRY SENELIE LES CEUSSES DES COLLINES Homme 202 01:15:48 06:15 9.60
264 JOEL LEERSNYDER - Homme 203 01:16:00 06:16 9.57
265 LAURENT LIBBRECHT AMIS DE VELAINES Homme 204 01:16:03 06:16 9.57
266 CHRISTOPHER MAT - Homme 205 01:16:03 06:16 9.57
267 LAURENT P - Homme 206 01:16:08 06:17 9.56
268 SYLVIE PEUTTE - Dame 62 01:16:10 06:17 9.55
269 LAURENT VANDERSTRICHELEN - Homme 207 1:16:26 06:18 9.52
270 CATHERINE VANDENBERGHE - Dame 63 1:17:08 06:22 9.43
271 PASCAL PENCHANT TORTUES MESLINOISES Homme 208 01:17:51 06:25 9.35
272 PASCAL PENCHANT - Homme 209 01:17:51 06:25 9.35
273 PHILIPPE ROLLAND - Homme 210 01:18:33 06:29 9.26
274 FRÉDÉRIC DECOSTER - Homme 211 01:18:37 06:29 9.26
275 NANCY RENAUX - Dame 64 01:19:17 06:32 9.18
276 STÉPHANIE THIERI - Dame 65 01:19:19 06:32 9.17
277 SEVERINE DELONVILLE - Dame 66 01:19:19 06:32 9.17
278 VALÉRIE VANESSE - Dame 67 01:19:58 06:36 9.10
279 CHRISTINE CANTRAINE ATHOIS D'COURIR Dame 68 01:19:58 06:36 9.10
280 LAURENT VOITURIER ATHOIS D'COURIR Homme 212 01:19:59 06:36 9.10
281 LOUISE GERARDI BAC Dame 69 01:20:29 06:38 9.04
282 FLORENTINE VRYGHEM - Dame 70 01:20:38 06:39 9.02
283 PRI AG ATHOÎS D'COURÎR Dame 71 1:20:40 06:39 9.02
284 GERMAIN MARTIN - Homme 213 01:21:00 06:41 8.98
285 ALEXANDRE DELDALLE - Homme 214 01:21:07 06:41 8.97
286 ANNE DELETTRE - Dame 72 1:21:08 06:41 8.97
287 KEVIN CLIQUE - Homme 215 01:21:10 06:42 8.96
288 COLETTE DELCOURTE LA PORTE OUVERTE Dame 73 1:21:24 06:43 8.94
289 ÉLISE DOYEN - Dame 74 01:21:29 06:43 8.93
290 MICHAEL DELPLAN - Homme 216 01:21:38 06:44 8.91
291 BRUNO JOVENEAU - Homme 217 01:21:57 06:45 8.88
292 CELINE L'ERARIO - Dame 75 1:22:06 06:46 8.86
293 BRUCE DUCATTEEUW - Homme 218 01:22:42 06:49 8.80
294 AXEL DEVAHIF - Homme 219 01:22:44 06:49 8.80
295 JEAN-LUC GORTS-HORLAY - Homme 220 01:23:15 06:52 8.74
296 SOPHIE MAGNIER LES CEUSSES DES COLLINES Dame 76 1:23:15 06:52 8.74
297 MYRIAM DENIS LES CEUSSES DES COLLINES Dame 77 01:23:15 06:52 8.74
298 CARINE MAKELBERGHE LES CEUSSES DES COLLINES Dame 78 01:23:15 06:52 8.74
299 DOROTHÉE DEPOORTERE LES CEUSSES DES COLLINES Dame 79 01:23:15 06:52 8.74
300 CAROLINE COSSEMENT LES CEUSSES DES COLLINES Dame 80 1:23:56 06:55 8.67
301 JESSICA YPERSIEL - Dame 81 01:24:14 06:57 8.64
302 SOPHIE CNUDDE - Dame 82 01:24:19 06:57 8.63
303 INGE LEMAN - Dame 83 01:24:55 07:00 8.57
304 HÉLIANE VANHAUDENARD - Dame 84 01:25:51 07:05 8.48
305 AXEL LAMMERANT - Homme 221 1:26:02 07:06 8.46
306 FLORENTINE VRYGHEM - Dame 85 1:26:18 07:07 8.43
307 ISABELLE GOREZ ATHOIS D'COURIR Dame 86 01:27:27 07:13 8.32
308 CHRISTOPHER LECOCQ - Homme 222 01:28:01 07:15 8.27
309 MARIE MATHIEU - Dame 87 01:28:01 07:15 8.27
310 SABRINA DE VILLE - Dame 88 01:30:08 07:26 8.07
311 CHRISTINE LEGRAIN - Dame 89 01:30:14 07:26 8.06
312 LORRY CARPENTIER - Dame 90 01:30:25 07:27 8.05
313 LUTGARDE CORNEZ - Dame 91 1:30:37 07:28 8.03
314 LUDIVINE BAELE - Dame 92 01:30:42 07:29 8.02
315 MARTINE VERCAIGNE - Dame 93 1:31:05 07:31 7.99
316 MARIE DUMONT SPHO Dame 94 01:34:04 07:45 7.74
317 ANTONIN BARBELETTE - Homme 223 01:53:10 09:20 6.43
318 ANTONIN BARBELETTE LA PORTE OUVERTE Homme 224 01:53:10 09:20 6.43
319 VALENTIN LEIEUX LA PORTE OUVERTE Homme 225 1:54:00 09:24 6.38
320 GEO LEUZMAN LA PORTE OUVERTE Homme 226 02:01:52 10:03 5.97
321   BABAORUM Dame 1 00:00:00 00:00 #DIV/0!